Voltar ao catálogo

SL-16 DEB

AtivoLEO
NORAD 22370·DEBRIS·🇷🇺 Russia

Lançado Dec 25, 1992 de Baikonur Cosmodrome

Loading…

Próximas Passagens (próximas 24 horas)

TLE

AtualizadoSource: Space-Track

Época: Sep 14, 2026, 09:27 UTC

1 22370U 92093BK  26257.39405894  .00000471  00000-0  29292-3 0  9990
2 22370  70.9746  47.8214 0106194  78.1708 309.9016 14.07216763725028

Acompanhe SL-16 DEB em tempo real com AllMySat

Download on the App Store